Weather History for KPRN - August, 2013

Change the Weather History Date:

Tuesday, August 6, 2013

  Actual Average Record
Temperature  
Mean Temperature 83 °F -  
Max Temperature 93 °F 91 °F 101 °F (1954)
Min Temperature 73 °F 69 °F 62 °F (1948)
Cooling Degree Days 18    
Growing Degree Days 33 (Base 50)    
Moisture  
Dew Point 73 °F    
Average Humidity 82    
Maximum Humidity 96    
Minimum Humidity 52    
Precipitation  
Precipitation 0.61 in - - ()
Sea Level Pressure  
Sea Level Pressure 29.98 in    
Wind  
Wind Speed 2 mph (SE)    
Max Wind Speed 16 mph    
Max Gust Speed 29 mph    
Visibility 8 miles    
Events Rain , Thunderstorm    
Averages and records for this station are not official NWS values.
T = Trace of Precipitation, MM = Missing Value Source: NWS Daily Summary

Daily Weather History Graph

Daily Weather History Graph

Search for Another Location

Airport or City:

Trip Planner

Search our weather history database for the weather conditions in past years. The results will help you decide how hot, cold, wet, or windy it might be!

Date:

Astronomy

Aug. 06, 2013 Rise Set
Actual Time 6:05 AM CDT 7:38 PM CDT
Civil Twilight 5:39 AM CDT 8:04 PM CDT
Nautical Twilight 5:07 AM CDT 8:36 PM CDT
Astronomical Twilight 4:34 AM CDT 9:09 PM CDT
Moon 5:52 AM CDT (8/6) 7:18 PM CDT (8/6)
Length of Visible Light 14h 25m
Length of Day
13h 33m
Waning Crescent, 0% of the Moon is Illuminated
Aug 6
Waning Crescent
Aug 6
New
Aug 14
First Quarter
Aug 20
Full
Aug 28
Last Quarter

Hourly Weather History & Observations

Time (CDT) Temp. Heat Index Dew Point Humidity Pressure Visibility Wind Dir Wind Speed Gust Speed Precip Events Conditions
12:56 AM 75.0 °F - 73.0 °F 94% 29.96 in 7.0 mi Calm Calm - N/A   Clear
1:56 AM 75.0 °F - 73.0 °F 94% 29.93 in 8.0 mi Calm Calm - N/A   Clear
2:56 AM 75.0 °F - 72.0 °F 90% 29.93 in 8.0 mi Calm Calm - N/A   Clear
4:56 AM 73.9 °F - 72.0 °F 93% 29.94 in 5.0 mi Calm Calm - N/A   Clear
5:56 AM 73.0 °F - 71.1 °F 93% 29.96 in 3.0 mi Calm Calm - N/A   Clear
6:23 AM 73.4 °F - 71.6 °F 94% 29.98 in 2.0 mi Calm Calm - N/A   Clear
6:42 AM 73.4 °F - 71.6 °F 94% 29.99 in 4.0 mi Calm Calm - N/A   Clear
6:56 AM 75.0 °F - 72.0 °F 90% 29.98 in 4.0 mi Calm Calm - N/A   Clear
7:56 AM 78.1 °F - 73.0 °F 84% 29.99 in 5.0 mi Calm Calm - N/A   Haze
8:56 AM 81.0 °F 85.2 °F 72.0 °F 74% 29.99 in 10.0 mi Calm Calm - N/A   Overcast
9:56 AM 86.0 °F 93.8 °F 73.9 °F 67% 29.99 in 10.0 mi West 8.1 mph - N/A   Clear
10:56 AM 86.0 °F 93.8 °F 73.9 °F 67% 30.00 in 10.0 mi North 3.5 mph - N/A   Clear
11:56 AM 88.0 °F 96.5 °F 73.9 °F 63% 29.99 in 10.0 mi North 5.8 mph - N/A   Clear
12:56 PM 90.0 °F 97.9 °F 73.0 °F 57% 29.97 in 10.0 mi West 4.6 mph - N/A   Mostly Cloudy
1:10 PM 89.6 °F 98.2 °F 73.4 °F 59% 29.99 in 10.0 mi Variable 4.6 mph - N/A   Partly Cloudy
1:56 PM 91.9 °F 101.3 °F 73.9 °F 55% 29.96 in 10.0 mi NE 4.6 mph - N/A   Partly Cloudy
2:56 PM 91.9 °F 101.3 °F 73.9 °F 55% 29.93 in 10.0 mi Calm Calm - N/A   Partly Cloudy
3:56 PM 93.0 °F 101.9 °F 73.0 °F 52% 29.91 in 10.0 mi Calm Calm - N/A   Clear
4:56 PM 90.0 °F 100.2 °F 75.0 °F 61% 29.92 in 10.0 mi Calm Calm - N/A   Clear
5:46 PM 89.6 °F 99.8 °F 75.2 °F 62% 29.94 in 10.0 mi NNW 3.5 mph - N/A Thunderstorm Thunderstorm
5:56 PM 89.1 °F 101.4 °F 77.0 °F 67% 29.93 in 10.0 mi North 3.5 mph - N/A Thunderstorm Thunderstorm
6:35 PM 80.6 °F 86.2 °F 75.2 °F 84% 30.02 in 3.0 mi NNE 16.1 mph 28.8 mph 0.09 in Rain , Thunderstorm Heavy Thunderstorms and Rain
6:37 PM 78.8 °F - 75.2 °F 89% 30.01 in 1.8 mi NNE 12.7 mph 28.8 mph 0.21 in Rain , Thunderstorm Heavy Thunderstorms and Rain
6:41 PM 75.2 °F - 71.6 °F 89% 30.02 in 1.0 mi NE 12.7 mph 28.8 mph 0.36 in Rain , Thunderstorm Heavy Thunderstorms and Rain
6:54 PM 75.2 °F - 73.4 °F 94% 30.03 in 3.0 mi SSE 5.8 mph - 0.44 in Rain , Thunderstorm Light Thunderstorms and Rain
6:55 PM 75.9 °F - 73.0 °F 91% 30.01 in 3.0 mi SE 5.8 mph - 0.44 in Rain , Thunderstorm Light Thunderstorms and Rain
7:29 PM 73.4 °F - 71.6 °F 94% 30.02 in 4.0 mi Calm Calm - 0.07 in Rain , Thunderstorm Heavy Thunderstorms and Rain
7:56 PM 73.9 °F - 72.0 °F 93% 30.00 in 6.0 mi ESE 4.6 mph - 0.13 in Rain , Thunderstorm Thunderstorms and Rain
8:26 PM 75.2 °F - 73.4 °F 94% 30.01 in 10.0 mi ESE 4.6 mph - 0.03 in Rain Light Rain
8:45 PM 73.4 °F - 71.6 °F 94% 30.01 in 10.0 mi SSE 5.8 mph - 0.03 in Rain , Thunderstorm Light Thunderstorms and Rain
8:56 PM 73.9 °F - 72.0 °F 93% 29.99 in 10.0 mi South 4.6 mph - 0.03 in Rain , Thunderstorm Light Thunderstorms and Rain
9:16 PM 73.4 °F - 71.6 °F 94% 30.00 in 10.0 mi South 6.9 mph - 0.01 in Rain Light Rain
9:30 PM 73.4 °F - 71.6 °F 94% 29.99 in 10.0 mi South 5.8 mph - 0.01 in   Mostly Cloudy
9:54 PM 73.4 °F - 71.6 °F 94% 30.00 in 10.0 mi South 3.5 mph - 0.01 in   Partly Cloudy
9:56 PM 73.0 °F - 72.0 °F 96% 29.98 in 10.0 mi South 4.6 mph - 0.01 in   Partly Cloudy
10:56 PM 73.0 °F - 71.1 °F 93% 29.97 in 10.0 mi Calm Calm - N/A   Clear
11:56 PM 73.0 °F - 71.1 °F 93% 29.95 in 10.0 mi WSW 3.5 mph - N/A   Clear